{"data":{"norad_id":52790,"epoch":"2026-09-20T22:08:31.680096Z","epoch_age_seconds":95182,"freshness":"FRESH","line1":"1 52790U 22058F   26263.92258889  .00000900  00000+0  14117-3 0  9995","line2":"2 52790  50.0044 120.7731 0033034 152.3640 207.9062 14.81591107234128","mean_motion":14.81591107,"eccentricity":0.0033034,"inclination_deg":50.0044,"raan_deg":120.7731,"arg_perigee_deg":152.364,"mean_anomaly_deg":207.9062,"bstar":0.00014117,"rev_number":23412,"period_min":97.192808001918,"perigee_km":601.17440726751,"apogee_km":647.4381495192,"semimajor_km":7002.4432783934,"source":"CELESTRAK","updated_at":"2026-09-21T09:00:08.721036Z"}}